Location: Ash Swamp
(41.5170°N, 74.6157°W)
Time: 17:27:34
(UTC+00:00)

USA 238 DEB - Pass Details

Date: 14 July 2020
Orbit: 1012 x 1200 km, 63.4° (Epoch: 02 August)

Event Time Altitude Azimuth Distance (km) Brightness Sun altitude
Exits shadow 08:20:45 13° 203° (SSW) 2,571 5.1 -12.3°
Maximum altitude 08:26:40 72° 121° (ESE) 1,087 3.8 -11.4°
Drops below altitude 10° 08:33:28 10° 39° (NE) 2,906 7.5 -10.5°
Sets 08:36:11 0° 37° (NE) 3,891 8.6 -10.1°
